Trinidad, CO

5:53 AM MDT on April 22, 2018 (GMT -0600)
Stokes

Weather History for KTAD - October, 2011

Change the Weather History Date:

Saturday, October 1, 2011

  Actual Average Record
Temperature  
Mean Temperature 68 °F 58 °F  
Max Temperature 86 °F 74 °F 89 °F (1954)
Min Temperature 50 °F 42 °F 30 °F (1961)
Degree Days  
Heating Degree Days 0 8  
Month to date heating degree days 0 8  
Since 1 July heating degree days 60 118  
Cooling Degree Days 3 0  
Month to date cooling degree days 3 0  
Year to date cooling degree days 1113 716  
Growing Degree Days 18 (Base 50)    
Moisture  
Dew Point 32 °F    
Average Humidity 35    
Maximum Humidity 56    
Minimum Humidity 13    
Precipitation  
Precipitation 0.00 in 0.03 in 0.69 in (1998)
Month to date precipitation 0.00 0.03  
Year to date precipitation 7.51 11.73  
Snow  
Snow 0.00 in - - ()
Month to date snowfall 0.0  
Snow Depth 0.00 in    
Sea Level Pressure  
Sea Level Pressure 30.00 in    
Wind  
Wind Speed 10 mph (SW)    
Max Wind Speed 21 mph    
Max Gust Speed 28 mph    
Visibility 10 miles    
Events      
T = Trace of Precipitation, MM = Missing Value Source: NWS Daily Summary

Daily Weather History Graph

Daily Weather History Graph

Search for Another Location

Airport or City:

Astronomy

Oct. 01, 2011 Rise Set
Actual Time 6:52 AM MDT 6:40 PM MDT
Civil Twilight 6:26 AM MDT 7:06 PM MDT
Nautical Twilight 5:56 AM MDT 7:37 PM MDT
Astronomical Twilight 5:25 AM MDT 8:07 PM MDT
Moon 11:53 AM MDT (10/1) 9:48 PM MDT (10/1)
Length of Visible Light 12h 40m
Length of Day
11h 48m
Waxing Crescent, 25% of the Moon is Illuminated
Oct 1
Waxing Crescent
Oct 3
First Quarter
Oct 11
Full
Oct 19
Last Quarter
Oct 26
New

Hourly Weather History & Observations

Time (MDT) Temp. Dew Point Humidity Pressure Visibility Wind Dir Wind Speed Gust Speed Precip Events Conditions
12:54 AM 57.9 °F 36.0 °F 44% 30.01 in 10.0 mi West 11.5 mph - N/A   Clear
1:54 AM 57.0 °F 36.0 °F 45% 30.01 in 10.0 mi WSW 9.2 mph - N/A   Clear
3:54 AM 55.9 °F 36.0 °F 47% 30.01 in 10.0 mi West 13.8 mph - N/A   Clear
4:54 AM 55.0 °F 36.0 °F 49% 30.01 in 10.0 mi WSW 13.8 mph - N/A   Clear
5:54 AM 50.0 °F 36.0 °F 59% 30.06 in 10.0 mi WNW 8.1 mph - N/A   Clear
6:54 AM 53.1 °F 35.1 °F 50% 30.06 in 10.0 mi West 11.5 mph - N/A   Clear
7:54 AM 55.0 °F 36.0 °F 49% 30.09 in 10.0 mi West 11.5 mph - N/A   Clear
8:54 AM 66.0 °F 37.0 °F 34% 30.07 in 10.0 mi West 8.1 mph - N/A   Clear
9:54 AM 73.0 °F 35.1 °F 25% 30.04 in 10.0 mi ESE 5.8 mph - N/A   Clear
12:54 PM 82.9 °F 33.1 °F 17% 29.99 in 10.0 mi ESE 8.1 mph - N/A   Clear
1:54 PM 84.0 °F 30.9 °F 15% 29.96 in 10.0 mi East 8.1 mph - N/A   Clear
2:54 PM 86.0 °F 32.0 °F 14% 29.94 in 10.0 mi ESE 12.7 mph 18.4 mph N/A   Unknown
3:54 PM 84.9 °F 30.9 °F 14% 29.93 in 10.0 mi SE 19.6 mph 25.3 mph N/A   Partly Cloudy
4:54 PM 82.0 °F 30.9 °F 16% 29.94 in 10.0 mi SE 17.3 mph 24.2 mph N/A   Clear
5:54 PM 80.1 °F 24.1 °F 13% 29.97 in 10.0 mi SSW 13.8 mph - N/A   Clear
6:54 PM 72.0 °F 23.0 °F 16% 29.99 in 10.0 mi SSW 9.2 mph - N/A   Clear
7:54 PM 66.0 °F 23.0 °F 20% 30.01 in 10.0 mi West 6.9 mph - N/A   Clear
8:54 PM 64.0 °F 28.9 °F 27% 30.01 in 10.0 mi NW 10.4 mph - N/A   Clear
9:54 PM 64.9 °F 30.9 °F 28% 29.99 in 10.0 mi SE 3.5 mph - N/A   Clear
10:54 PM 68.0 °F 30.0 °F 24% 29.98 in 10.0 mi Calm Calm - N/A   Clear
11:54 PM 62.1 °F 30.0 °F 30% 29.98 in 10.0 mi WSW 8.1 mph - N/A   Clear